Temp
18 17 14 14 14 14 13 13 13 13 13 13 13 12 13 13 12 12 12 12 13 13 14 14 13 13 14 14 13 14 14 15 15 16 17 18 19 20 20 20 20 21 21
20 16 14 13 13 13 13 12 12 12 12 12 12 12 12 12 12 12 11 11 12 12 13 13 12 12 12 12 12 12 13 13 14 16 18 19 20 21 20 20 20 21 20
19 18 14 13 13 12 12 12 11 11 11 10 11 11 11 11 11 11 10 11 11 11 11 11 11 11 11 10 10 11 11 11 16 17 18 18 21 21 20 20 19 19 19
18 17 13 12 12 12 11 11 10 10 10 10 10 10 10 10 10 10 9 10 10 10 10 10 10 10 10 9 9 9 10 11 15 17 17 21 23 21 20 20 18 19 19
18 16 13 12 11 11 10 10 9 9 9 9 8 9 9 8 9 8 8 9 9 9 9 9 9 9 8 8 8 8 9 11 16 17 18 19 19 18 18 18 18 18 19
17 15 12 11 10 10 9 8 8 8 8 7 7 7 7 7 7 7 7 7 8 7 7 7 7 7 7 7 7 7 8 11 15 16 18 17 17 16 16 16 17 18 17
16 15 12 10 9 8 8 7 7 7 7 7 6 6 6 6 6 6 6 6 7 6 6 6 6 6 6 6 6 6 7 8 10 14 17 17 14 15 14 15 16 17 17
15 14 14 10 10 9 7 6 6 6 6 6 6 6 6 6 6 6 6 5 5 5 5 5 5 5 5 5 6 6 6 7 9 13 17 17 14 14 13 13 14 15 16
15 14 13 14 11 10 10 7 6 6 6 6 6 6 6 7 7 7 6 5 5 5 5 5 5 5 5 5 6 6 6 8 9 13 16 16 11 13 11 12 13 14 15
15 15 14 13 13 13 12 9 7 7 7 7 6 6 7 8 7 7 7 5 5 5 5 5 5 5 5 6 7 7 7 10 11 13 14 11 11 12 9 10 11 12 13
16 15 14 14 13 13 13 11 10 9 9 8 7 7 8 8 7 7 7 6 6 6 6 6 6 6 7 8 8 8 8 11 10 11 13 10 10 8 8 9 9 10 11
17 16 14 12 12 13 13 12 11 10 9 8 7 6 7 7 7 7 7 7 7 7 7 6 7 7 8 8 8 8 9 8 9 11 12 9 8 6 7 8 9 9 10
16 15 14 12 11 11 12 11 11 10 9 9 7 5 6 7 6 7 7 7 7 7 7 7 7 7 6 7 7 7 7 8 9 9 10 8 7 5 6 8 9 9 9
15 14 13 12 10 10 11 11 10 10 8 8 7 5 5 6 6 6 6 6 6 6 6 6 6 6 6 7 7 7 7 7 8 8 9 8 6 5 5 7 8 9 10
15 13 12 11 10 10 10 9 9 8 8 7 7 5 5 5 5 5 6 6 6 6 5 6 6 6 6 7 7 7 7 7 7 7 8 8 6 6 5 5 7 7 8
14 13 11 10 9 9 9 9 9 8 8 7 7 5 4 4 4 5 5 5 5 5 5 5 5 5 6 6 7 7 7 7 7 7 8 8 8 6 5 5 5 5 6
14 12 11 11 9 8 9 8 9 7 7 7 7 5 4 3 3 4 5 5 4 4 5 5 5 5 5 6 6 6 7 8 8 7 7 8 8 7 6 6 5 5 5
14 12 10 10 9 9 8 8 8 7 7 7 6 5 3 3 3 4 5 4 3 4 5 4 4 4 5 5 5 5 7 7 8 7 7 7 7 7 7 7 6 5 5
13 12 11 9 9 8 8 8 9 8 7 7 6 5 3 3 3 3 4 4 3 4 4 4 4 4 4 4 5 5 6 7 8 7 7 7 7 6 6 7 6 6 6
12 11 10 9 8 9 9 9 9 9 8 7 6 4 3 3 3 3 4 3 3 4 4 3 3 3 3 3 4 5 7 8 7 7 6 7 7 6 6 6 6 7 7
12 11 10 9 8 9 9 9 8 8 8 7 6 5 4 3 3 3 3 3 3 3 3 3 3 3 3 3 4 5 6 8 6 5 7 6 6 6 6 6 6 6 7
12 11 10 9 8 8 8 8 7 8 8 7 6 5 4 3 3 3 3 3 3 3 3 3 3 2 1 2 2 4 5 8 4 4 5 6 5 5 6 6 6 6 6
12 10 10 9 8 7 6 7 7 8 8 7 6 6 4 4 3 3 2 2 2 2 3 2 2 0 -1 0 1 2 2 3 2 5 5 5 5 5 5 5 6 5 4
11 10 9 8 8 7 5 6 6 7 7 6 6 5 5 4 3 3 2 2 2 2 2 2 1 -2 -3 -2 -2 -1 -1 0 1 2 3 3 4 5 5 5 5 4 3
11 10 9 8 7 6 5 5 5 5 5 5 5 5 5 4 4 3 2 2 2 1 1 1 -0 -2 -3 -3 -3 -3 -2 -1 -0 -0 0 2 3 4 4 5 5 4 2
11 10 9 8 6 5 5 5 4 4 4 4 4 5 4 4 4 3 2 2 1 1 1 0 -2 -3 -3 -4 -4 -3 -3 -3 -2 -2 -1 -0 1 2 3 5 5 4 3
Height
859 859 858 856 854 852 849 848 846 844 841 839 835 833 830 828 826 824 822 819 817 815 813 810 808 806 804 802 799 798 795 793 791 789 788 787 785 785 784 784 784 783 781
858 857 858 857 856 853 851 850 848 845 842 840 837 835 832 829 827 826 823 820 818 816 813 811 808 805 803 801 798 797 795 791 789 787 786 785 784 783 782 783 783 783 782
858 859 858 859 857 855 853 851 849 846 844 841 838 836 833 831 828 826 823 820 818 816 813 811 808 806 802 799 797 794 792 790 788 787 786 784 782 779 781 782 782 782 782
859 860 860 859 857 856 854 852 849 847 844 841 839 837 834 832 829 827 823 820 818 816 814 811 807 805 801 798 795 792 790 787 788 786 785 783 779 775 776 779 781 781 781
860 860 860 860 858 857 855 852 850 847 843 841 839 837 835 832 830 827 824 822 819 817 814 810 808 804 800 797 793 791 788 785 783 784 784 782 779 777 776 777 779 780 779
860 861 861 860 859 858 855 853 850 846 844 841 839 837 836 833 831 828 824 822 820 817 814 811 807 804 800 797 793 790 786 783 782 782 781 779 779 775 776 777 776 776 778
861 862 862 860 859 858 856 853 850 848 845 842 839 837 835 834 831 828 825 823 820 817 814 809 806 803 799 796 793 789 786 782 780 779 779 778 776 775 776 776 774 774 776
861 862 862 859 858 857 856 853 851 848 846 843 840 838 836 834 831 828 826 823 819 816 813 810 806 802 799 795 791 788 784 781 779 778 775 776 774 773 773 774 773 773 773
862 862 862 862 859 856 854 854 853 849 846 844 842 840 837 834 832 829 826 823 820 817 814 810 806 803 799 794 790 786 782 779 778 777 775 775 769 771 772 773 773 772 772
862 862 862 862 862 860 858 855 853 851 848 846 844 841 838 835 832 829 827 824 821 818 813 810 806 802 798 793 791 788 783 778 777 777 775 770 769 770 772 771 771 771 771
862 862 862 862 861 860 858 856 854 852 850 848 845 841 838 835 832 829 827 824 821 817 813 809 806 802 798 793 790 787 782 780 778 777 774 768 769 769 771 770 769 768 769
861 861 862 862 861 860 858 856 854 853 851 849 846 842 839 836 834 831 828 824 820 817 812 809 805 802 798 794 790 787 784 782 778 775 774 769 769 771 771 770 768 766 766
860 862 862 862 861 860 858 856 854 853 851 849 847 844 841 838 835 832 828 825 821 817 814 810 806 802 800 797 792 789 786 782 778 775 773 770 770 771 770 769 767 767 765
861 862 862 862 861 859 858 857 855 853 852 851 850 847 844 840 838 834 831 827 824 819 816 812 808 804 799 795 792 789 786 782 778 776 773 771 770 770 769 768 767 766 766
861 862 862 862 862 860 859 858 856 854 853 852 851 849 846 843 840 836 833 829 825 821 817 812 808 804 799 794 791 788 784 781 777 776 773 771 768 767 767 767 766 764 763
860 862 863 862 861 860 859 858 857 855 854 854 852 851 848 845 842 838 834 831 828 824 819 814 810 805 800 795 791 787 783 779 776 775 773 770 768 765 766 766 764 763 763
860 862 862 862 860 860 860 859 858 857 856 854 853 851 849 846 844 840 836 833 830 825 821 816 811 806 801 795 791 787 782 777 775 775 773 770 767 765 764 763 764 763 762
860 862 862 861 860 860 860 859 859 858 856 854 853 851 849 847 845 841 837 834 831 825 821 817 813 807 802 796 792 787 781 777 774 774 772 771 768 766 765 764 764 763 761
860 861 861 861 860 860 860 859 857 856 855 854 853 852 850 848 845 842 839 836 832 827 823 819 814 810 804 798 793 787 780 776 774 774 773 771 768 767 765 762 762 760 759
859 860 861 861 861 861 860 858 856 854 853 853 852 852 850 848 846 842 839 836 833 828 824 821 816 812 807 801 795 786 777 775 775 773 772 770 768 767 764 761 759 758 757
858 860 860 861 861 861 859 858 856 854 852 852 851 851 850 849 846 844 840 837 834 830 826 822 818 813 809 804 797 788 779 773 775 776 770 770 769 767 765 762 760 757 756
857 859 860 860 861 861 860 858 856 853 851 851 851 850 850 849 847 844 842 838 835 831 827 823 819 816 813 808 803 795 785 774 776 777 774 769 769 766 763 761 760 759 757
857 858 859 860 861 862 860 858 855 852 851 850 850 850 849 849 847 845 843 840 836 833 828 824 822 820 817 811 808 805 798 790 789 775 775 772 770 767 763 760 759 758 758
856 858 859 861 862 862 861 859 856 854 853 852 851 850 849 848 847 844 842 840 836 833 830 826 824 823 820 815 811 809 808 803 797 783 780 775 771 767 763 760 758 758 759
856 858 860 861 862 862 862 860 857 856 855 853 852 850 848 847 845 844 843 840 837 834 831 827 825 823 820 817 814 810 807 803 799 796 786 779 774 768 763 759 757 757 757
855 857 860 861 863 863 862 860 859 858 857 855 853 851 849 847 844 843 842 840 837 834 831 827 826 823 820 817 814 811 808 805 800 797 792 786 779 770 764 758 756 757 758
Wind_Speed
12 14 15 16 18 19 20 20 20 20 20 20 20 20 20 20 20 20 19 19 18 18 16 17 17 18 17 17 18 14 14 14 14 12 12 13 13 11 10 10 9 8 9
9 13 14 16 17 18 19 18 18 19 19 20 20 20 19 18 18 18 19 19 18 17 16 17 16 16 17 16 18 19 19 17 16 13 14 14 14 13 12 11 11 8 6
9 10 15 14 16 16 17 17 17 18 19 19 19 19 18 17 18 17 18 18 18 18 17 17 17 17 18 18 17 17 18 19 18 18 16 16 17 17 10 12 12 12 7
9 10 10 13 15 15 15 16 18 18 19 19 19 19 18 18 18 18 18 18 18 19 18 18 17 17 17 18 18 18 18 18 17 15 15 16 20 16 11 13 12 12 11
9 10 10 11 14 14 15 16 17 18 19 20 20 19 19 19 18 18 19 19 18 18 18 19 19 19 18 19 19 19 19 20 18 13 16 14 16 7 6 7 11 12 14
8 9 9 11 12 13 14 15 17 19 19 20 20 20 20 20 19 19 20 20 20 20 20 20 20 20 20 20 20 19 19 19 18 15 14 11 10 11 9 10 12 14 11
7 7 8 10 11 13 14 16 17 19 20 21 20 20 19 18 18 18 18 19 19 20 20 21 21 21 22 22 21 20 21 20 17 16 15 11 5 10 7 9 8 12 16
7 6 5 6 10 12 13 15 17 18 19 20 20 20 18 18 19 19 19 20 19 20 19 20 21 21 21 22 21 21 22 22 18 16 16 15 14 13 7 9 6 7 13
7 7 6 5 5 11 16 15 15 17 19 20 20 20 19 17 19 18 18 20 21 20 21 20 22 22 22 22 20 21 23 20 16 13 13 13 5 13 11 11 9 6 5
7 7 6 6 6 7 10 14 13 16 18 19 20 20 18 17 18 19 18 20 20 20 21 21 22 23 22 20 18 19 23 14 12 12 12 5 8 12 14 14 12 10 6
7 7 7 7 8 8 9 11 13 14 15 17 19 21 19 19 19 20 18 20 20 20 21 22 22 23 21 18 17 18 19 12 14 14 13 10 16 15 17 16 14 14 11
6 7 7 8 9 9 9 10 12 13 14 16 20 22 20 19 20 21 19 21 21 21 21 23 22 21 20 19 18 18 16 17 15 12 12 13 16 17 17 16 15 15 14
7 7 8 8 9 10 9 11 11 12 15 16 19 22 20 19 20 20 20 21 22 21 22 23 22 22 22 20 19 18 19 18 15 14 14 14 18 16 15 14 14 13 14
7 8 8 8 8 9 9 10 11 13 15 16 17 20 20 19 20 20 20 20 21 21 22 23 22 23 21 19 18 18 19 17 16 16 14 11 15 13 13 12 12 11 10
7 7 7 7 8 9 9 10 11 12 14 14 15 17 19 19 19 18 18 19 20 20 20 21 22 23 22 20 18 19 19 17 15 14 14 13 10 12 10 11 10 11 12
6 6 5 7 8 9 9 9 10 12 12 13 13 15 18 18 19 18 18 19 21 20 20 21 23 23 23 21 20 20 18 16 13 12 12 14 11 11 7 11 10 12 13
6 6 6 7 8 8 8 9 9 11 11 12 13 14 17 17 18 18 18 19 21 20 20 21 22 22 22 21 22 22 19 15 11 10 12 12 13 5 6 12 11 15 13
6 5 6 7 8 7 8 7 9 10 10 11 12 13 16 16 18 18 17 19 21 20 20 21 22 23 23 22 24 23 21 14 9 9 10 14 11 11 13 10 13 16 14
6 5 6 7 7 7 7 7 7 7 9 10 11 13 15 15 17 18 17 19 21 19 19 21 22 22 23 24 25 24 20 11 7 9 14 13 11 14 15 14 15 17 12
6 5 5 6 7 6 7 8 8 8 8 9 10 12 14 15 16 17 17 18 20 19 19 21 21 22 21 24 25 26 16 7 9 16 19 13 13 15 16 16 16 14 10
6 5 5 5 6 7 8 9 9 10 9 9 10 11 12 14 15 16 18 18 19 19 19 20 21 21 20 23 24 25 21 9 12 20 10 17 17 17 16 14 15 15 13
6 5 4 5 5 7 7 8 9 8 9 9 10 10 11 13 15 16 17 18 19 19 18 20 20 21 19 20 21 18 9 2 28 23 18 13 19 21 18 16 15 15 13
7 5 4 4 4 6 8 8 10 8 8 10 11 11 13 13 14 15 17 17 18 18 19 20 20 19 18 18 18 13 6 6 20 17 20 20 17 22 19 17 15 14 10
8 6 5 4 4 6 8 9 10 11 11 11 11 12 12 12 13 14 16 16 17 18 18 19 18 17 14 16 17 13 13 16 9 9 19 24 21 21 20 19 16 12 10
9 7 5 4 4 6 8 10 11 11 11 10 11 12 12 12 12 12 16 16 17 18 18 18 19 18 14 14 15 16 16 16 17 13 11 19 23 22 20 19 13 13 10
9 7 6 4 4 6 8 9 10 11 10 12 13 13 14 13 13 13 17 17 17 18 19 18 18 16 16 14 15 15 13 15 16 13 9 15 18 23 23 19 13 12 10
Wind_Direction
81 53 47 45 47 46 44 40 37 33 31 28 26 25 25 23 20 18 15 13 13 11 9 6 3 359 356 351 350 339 342 340 331 302 300 288 280 274 269 264 248 248 227
50 68 51 46 46 46 42 37 33 31 30 28 26 24 24 22 18 14 12 11 9 4 359 356 354 356 355 350 349 342 332 323 311 296 289 282 280 263 260 257 247 258 216
57 47 51 46 47 44 40 37 35 32 30 28 26 24 23 20 17 14 11 10 6 2 360 355 349 345 345 344 341 340 337 327 303 297 295 284 273 233 253 256 248 246 226
63 54 49 44 43 40 36 36 34 32 30 27 24 22 19 15 12 9 8 7 3 359 355 352 350 345 342 340 339 335 330 324 310 308 298 278 277 223 236 257 253 240 232
65 57 49 42 44 38 37 37 35 32 29 25 22 20 16 13 11 8 7 5 1 356 352 349 347 344 342 340 337 334 331 319 300 298 290 298 294 325 327 273 258 258 237
66 61 51 56 47 44 40 38 34 32 29 26 22 19 16 13 10 9 7 3 360 356 353 350 346 343 338 334 332 331 328 317 304 298 291 284 301 315 351 303 262 244 248
77 65 59 63 53 46 42 38 35 31 29 26 21 17 14 11 10 8 6 4 359 354 352 350 348 344 339 336 330 328 325 319 313 290 273 267 297 265 340 347 278 255 250
82 73 58 53 21 28 40 37 33 30 26 22 18 13 8 6 5 3 2 359 356 353 348 348 345 342 338 336 331 328 325 318 312 293 270 261 263 254 321 336 315 262 244
83 72 58 43 21 19 5 26 27 26 23 18 12 7 3 1 359 355 354 353 352 350 346 344 342 341 338 336 333 329 324 320 309 291 281 268 312 255 336 320 339 317 250
82 69 53 38 22 9 7 9 17 18 16 14 10 4 2 359 356 353 350 349 348 346 346 345 342 339 337 333 330 331 327 327 294 298 285 302 314 280 328 326 311 326 329
83 67 50 35 20 9 6 1 7 6 7 7 5 4 1 357 354 353 349 349 347 345 346 344 342 338 336 335 332 333 328 327 315 297 281 319 311 318 321 317 314 308 317
83 62 47 36 25 12 5 5 5 3 3 4 4 5 0 358 354 351 348 349 347 346 347 344 343 341 339 335 332 331 332 325 315 303 284 322 318 334 318 313 314 305 303
92 70 48 34 23 19 9 8 7 5 6 3 3 4 0 359 354 352 350 349 348 348 347 345 345 345 341 336 334 330 328 326 318 310 296 320 315 327 321 318 315 315 302
92 68 51 33 26 19 17 10 9 10 7 4 1 2 2 359 354 353 351 349 349 348 345 346 344 341 340 338 334 330 330 326 320 312 302 311 321 328 328 326 325 322 322
99 72 52 38 30 24 18 14 12 10 5 1 359 1 3 360 355 351 350 350 349 345 345 343 342 341 340 337 334 330 328 325 322 314 311 307 299 330 334 331 329 331 329
104 81 60 46 36 27 20 13 12 7 3 360 359 0 3 1 356 352 350 350 348 345 344 345 344 342 340 338 336 334 328 325 324 321 315 317 308 305 337 340 335 329 322
111 86 63 49 36 28 18 11 9 4 2 359 358 0 2 2 358 353 351 349 348 344 344 345 345 344 341 340 339 335 329 327 326 327 325 326 321 303 341 332 335 328 317
113 86 63 51 37 23 14 9 8 2 359 358 359 360 1 1 359 355 351 350 347 346 346 348 348 345 342 342 341 335 329 324 332 336 337 340 330 326 321 327 325 321 311
115 91 74 53 33 19 5 358 352 353 358 358 359 1 1 0 359 355 351 348 348 347 347 348 348 347 341 344 340 335 328 328 328 350 348 342 346 339 328 321 324 315 300
121 99 81 56 32 11 2 357 353 353 357 357 360 2 1 359 356 353 350 349 348 347 348 349 348 348 343 344 342 338 324 331 331 338 328 338 341 340 335 330 326 323 320
132 113 82 58 31 13 6 360 354 354 355 357 359 359 357 356 353 351 350 348 349 347 348 348 347 347 347 346 345 347 337 321 30 342 359 332 342 339 334 333 326 326 317
145 129 99 61 35 20 7 360 348 348 350 355 357 354 353 352 351 351 350 348 348 345 348 348 349 347 344 346 352 349 344 308 358 334 341 351 337 335 331 333 332 323 320
160 140 105 67 43 23 7 1 359 356 354 360 354 350 348 347 348 350 349 348 347 346 347 348 350 349 341 341 354 359 343 346 329 351 331 339 336 334 329 330 326 331 333
159 138 112 76 47 27 15 11 6 3 2 356 349 347 341 342 343 347 348 347 347 345 346 348 347 343 338 334 340 349 329 319 321 317 326 319 335 326 329 325 326 329 340
164 143 118 98 56 31 21 17 9 8 358 351 351 343 343 342 344 346 347 345 346 345 342 344 343 340 335 328 328 324 323 322 324 331 313 326 325 327 324 319 321 317 337
161 140 128 103 59 31 22 17 14 7 357 353 352 345 346 343 344 350 345 345 343 343 340 342 338 334 337 333 324 316 319 323 321 320 312 316 315 320 317 311 325 322 318